Flag for France Weather past 2 weeks in Mulhouse, France

Now
52 °F

Sprinkles. Partly sunny.


Feels Like: 50 °F
Forecast: 38 / 50 °F
Wind: 6 mph from Southwest

Location: Bale-Mulhouse

Current Time: Mar 1, 2015 at 4:26:33 PM

Latest Report: Mar 1, 2015 at 4:00 PM


Visibility: 4 mi

Pressure: 29.83 "Hg

Humidity: 88%

Dew point: 48 °F

Location of MulhouseLocation

Historic Weather in Mulhouse — Graph

°F

Mulhouse temperature yesterday

Maximum temperature yesterday: 45 °F (at 2:00 PM)
Minimum temperature yesterday: 34 °F (at 8:00 AM)
Average temperature yesterday: 38 °F

Past Weeks' High & Low Weather Summary

 TemperatureHumidityPressure
High61 °F (Feb 20, 4:00 PM)100% (Feb 15, 8:00 AM)30.69 "Hg (Feb 15, 8:00 AM)
Low28 °F (Feb 19, 4:30 AM)18% (Feb 20, 5:00 PM)29.56 "Hg (Feb 21, 6:30 AM)
Average38 °F81%30.03 "Hg
* Reported Feb 14 3:00 PM — Mar 1 3:30 PM, Mulhouse, Weather by CustomWeather, © 2015

Note: Actual official high and low records may vary slightly from our data, if they occured in-between our weather recording intervals... More about our weather records

Advertising

Mulhouse weather history for previous 24 hours

 ConditionsComfort  
Time TempWeatherWind HumidityBarometerVisibility
3:30 PM
Sun, Mar 1
52 °FSprinkles. Partly sunny.1 mph88%29.83 "Hg5 mi
3:00 PM52 °FSprinkles. Partly sunny.7 mph88%29.83 "Hg5 mi
2:30 PM54 °FSprinkles. Partly sunny.12 mph82%29.83 "HgN/A
2:00 PM54 °FPartly sunny.8 mph82%29.86 "HgN/A
1:30 PM54 °FRain. Partly sunny.20 mph77%29.86 "HgN/A
1:00 PM55 °FScattered clouds.16 mph77%29.86 "HgN/A
12:30 PM48 °FPartly sunny.5 mph82%29.86 "HgN/A
12:00 PM46 °FPartly sunny.6 mph82%29.89 "HgN/A
11:30 AM45 °FPartly sunny.5 mph87%29.89 "HgN/A
11:00 AM45 °FPartly sunny.9 mph87%29.89 "HgN/A
10:30 AM43 °FPartly sunny.9 mph87%29.89 "HgN/A
10:00 AM39 °FPartly sunny.5 mph93%29.89 "HgN/A
9:30 AM39 °FPartly sunny.3 mph93%29.89 "HgN/A
9:00 AM39 °FPartly sunny.3 mph93%29.89 "HgN/A
8:30 AM39 °FPartly sunny.3 mph87%29.89 "HgN/A
8:00 AM37 °FPartly sunny.6 mph93%29.89 "HgN/A
7:30 AM37 °FLight rain. Partly sunny.8 mph93%29.86 "HgN/A
7:00 AM36 °FLight rain. Mostly cloudy.9 mph93%29.89 "Hg4 mi
6:30 AM36 °FLight rain. Overcast.8 mph93%29.89 "Hg3 mi
6:00 AM36 °FLight rain. Overcast.7 mph93%29.92 "Hg4 mi
5:30 AM36 °FLight rain. Overcast.6 mph87%29.92 "Hg4 mi
5:00 AM36 °FLight rain. Mostly cloudy.3 mph87%29.92 "Hg6 mi
4:30 AM36 °FLight rain. Mostly cloudy.8 mph87%29.92 "HgN/A
4:00 AM36 °FMostly cloudy.9 mph87%29.92 "HgN/A
3:30 AM36 °FPassing clouds.7 mph87%29.95 "HgN/A
3:00 AM34 °FClear.6 mph93%29.95 "HgN/A
2:30 AM34 °FClear.5 mph93%29.95 "HgN/A
2:00 AM34 °FClear.5 mph87%29.98 "HgN/A
1:30 AM34 °FClear.6 mph93%29.98 "Hg6 mi
1:00 AM34 °FClear.6 mph93%29.98 "HgN/A
12:30 AM34 °FClear.6 mph87%29.98 "HgN/A
12:00 AM34 °FPassing clouds.5 mph87%30.01 "HgN/A
11:30 PM
Sat, Feb 28
34 °FPassing clouds.6 mph87%30.01 "HgN/A
11:00 PM34 °FClear.5 mph87%30.04 "Hg10 mi
10:00 PM34 °FClear.7 mph87%30.04 "Hg10 mi
9:30 PM34 °FClear.5 mph87%30.07 "Hg10 mi
9:00 PM34 °FClear.5 mph87%30.07 "Hg10 mi
8:30 PM36 °FClear.3 mph81%30.07 "Hg10 mi
8:00 PM37 °FClear.3 mph75%30.07 "Hg10 mi
7:30 PM37 °FPassing clouds.3 mph75%30.07 "HgN/A
7:00 PM37 °FPassing clouds.5 mph75%30.07 "HgN/A
6:30 PM39 °FPassing clouds.6 mph65%30.07 "HgN/A
6:00 PM41 °FPassing clouds.3 mph66%30.07 "HgN/A
5:30 PM43 °FPassing clouds.8 mph61%30.07 "HgN/A
5:00 PM45 °FScattered clouds.7 mph57%30.07 "HgN/A
4:30 PM45 °FScattered clouds.7 mph61%30.09 "HgN/A
4:00 PM45 °FBroken clouds.5 mph57%30.09 "HgN/A
Weather by CustomWeather, © 2015

See weather overviewHow to use our weather pages